Weather History for KBLH - November, 2012

Change the Weather History Date:

Sunday, November 4, 2012

  Actual Average (KNYL) Record (KNYL)
Temperature  
Mean Temperature 73 °F 70 °F  
Max Temperature 91 °F 83 °F 95 °F (1962)
Min Temperature 55 °F 58 °F 34 °F (1922)
Degree Days  
Heating Degree Days 0 0  
Month to date heating degree days 0  
Since 1 July heating degree days 2  
Cooling Degree Days 8 6  
Month to date cooling degree days 25  
Year to date cooling degree days 4587  
Growing Degree Days 23 (Base 50)    
Moisture  
Dew Point 26 °F    
Average Humidity 20    
Maximum Humidity 32    
Minimum Humidity 9    
Precipitation  
Precipitation 0.00 in 0.01 in 0.15 in (1886)
Month to date precipitation 0.03  
Year to date precipitation 2.86  
Sea Level Pressure  
Sea Level Pressure 30.04 in    
Wind  
Wind Speed 3 mph (NW)    
Max Wind Speed 8 mph    
Max Gust Speed -    
Visibility 10 miles    
Events      
T = Trace of Precipitation, MM = Missing Value Source: NWS Daily Summary

Daily Weather History Graph

Daily Weather History Graph

Search for Another Location

Airport or City:

Trip Planner

Search our weather history database for the weather conditions in past years. The results will help you decide how hot, cold, wet, or windy it might be!

Date:

Astronomy

Nov. 04, 2012 Rise Set
Actual Time 6:00 AM PST 4:43 PM PST
Civil Twilight 5:35 AM PST 5:09 PM PST
Nautical Twilight 5:05 AM PST 5:38 PM PST
Astronomical Twilight 4:36 AM PST 6:08 PM PST
Moon 9:27 PM PST (11/4) 10:44 AM PST (11/4)
Length of Visible Light 11h 34m
Length of Day
10h 42m
Waning Gibbous, 71% of the Moon is Illuminated
Nov 4
Waning Gibbous
Nov 6
Last Quarter
Nov 13
New
Nov 20
First Quarter
Nov 28
Full

Hourly Weather History & Observations

Time (PST) Temp. Dew Point Humidity Pressure Visibility Wind Dir Wind Speed Gust Speed Precip Events Conditions
12:52 AM 66.0 °F 28.0 °F 24% 30.02 in 10.0 mi Calm Calm - N/A   Clear
1:52 AM 63.0 °F 27.0 °F 26% 30.02 in 10.0 mi West 5.8 mph - N/A   Clear
1:52 AM 57.9 °F 26.1 °F 30% 30.02 in 10.0 mi North 6.9 mph - N/A   Clear
2:52 AM 59.0 °F 26.1 °F 28% 30.02 in 10.0 mi NW 4.6 mph - N/A   Clear
3:52 AM 55.9 °F 26.1 °F 32% 30.03 in 10.0 mi Calm Calm - N/A   Clear
4:52 AM 57.0 °F 27.0 °F 32% 30.04 in 10.0 mi Calm Calm - N/A   Clear
5:52 AM 55.9 °F 25.0 °F 30% 30.05 in 10.0 mi WSW 3.5 mph - N/A   Clear
6:52 AM 61.0 °F 26.1 °F 26% 30.08 in 10.0 mi Calm Calm - N/A   Clear
7:52 AM 64.9 °F 25.0 °F 22% 30.09 in 10.0 mi SW 6.9 mph - N/A   Clear
8:52 AM 71.1 °F 26.1 °F 19% 30.10 in 10.0 mi WSW 3.5 mph - N/A   Clear
9:52 AM 75.0 °F 26.1 °F 16% 30.10 in 10.0 mi Calm Calm - N/A   Clear
10:52 AM 80.1 °F 26.1 °F 14% 30.08 in 10.0 mi Calm Calm - N/A   Clear
11:52 AM 82.9 °F 37.0 °F 19% 30.05 in 10.0 mi ESE 4.6 mph - N/A   Clear
12:52 PM 87.1 °F 30.0 °F 13% 30.02 in 10.0 mi ENE 3.5 mph - N/A   Clear
1:52 PM 89.1 °F 24.1 °F 9% 30.01 in 10.0 mi NNW 8.1 mph - N/A   Clear
2:52 PM 91.0 °F 25.0 °F 9% 30.00 in 10.0 mi North 6.9 mph - N/A   Clear
3:52 PM 89.1 °F 25.0 °F 10% 30.00 in 10.0 mi North 8.1 mph - N/A   Clear
4:52 PM 84.0 °F 25.0 °F 12% 30.00 in 10.0 mi NW 3.5 mph - N/A   Clear
5:52 PM 79.0 °F 24.1 °F 13% 30.01 in 10.0 mi Variable 3.5 mph - N/A   Clear
6:52 PM 75.9 °F 24.1 °F 15% 30.02 in 10.0 mi NNW 5.8 mph - N/A   Clear
7:52 PM 73.9 °F 24.1 °F 16% 30.03 in 10.0 mi North 4.6 mph - N/A   Clear
8:52 PM 70.0 °F 23.0 °F 17% 30.04 in 10.0 mi West 6.9 mph - N/A   Clear
9:52 PM 69.1 °F 23.0 °F 18% 30.04 in 10.0 mi West 3.5 mph - N/A   Clear
10:52 PM 66.9 °F 23.0 °F 19% 30.04 in 10.0 mi West 4.6 mph - N/A   Clear